Regional Weather Roundup
Issued by NWS

Home | Current Version | Previous Version | Text Only | Print | Product List | Glossary On
Versions: 1 2 3 4 5 6 7 8 9 10 11 12 13 14 15 16 17 18 19 20 21 22 23 24 25 26 27 28 29 30 31 32 33 34 35 36 37 38 39 40 41 42 43 44 45 46 47 48 49 50
000
ASUS44 KOUN 110510
RWROK

WEATHER ROUNDUP FOR OKLAHOMA
NATIONAL WEATHER SERVICE NORMAN OK
1100 PM CST SAT DEC 10 2016

NOTE: "FAIR" INDICATES FEW OR NO CLOUDS BELOW 12,000 FEET WITH NO
      SIGNIFICANT WEATHER AND/OR OBSTRUCTIONS TO VISIBILITY.

OKZ001>007-009>012-014-015-017-110600-
NORTHWEST OKLAHOMA AND THE PANHANDLE

CITY           SKY/WX    TMP DP  RH WIND       PRES   REMARKS
GAGE           CLOUDY    49  39  68 S23G32    29.74F
GUYMON         CLOUDY    54  26  34 SW22      29.66F
ENID/WOODRING  CLOUDY    41  37  87 S21G26    29.87S
$$

OKZ016-021>023-033>039-044-045-110600-
SOUTHWEST OKLAHOMA

CITY           SKY/WX    TMP DP  RH WIND       PRES   REMARKS
LAWTON/REGL    CLOUDY    48  41  76 S14       29.96F
LAWTON/FT SILL CLOUDY    47  42  81 S17G23    29.94F
FREDERICK      CLOUDY    45  40  82 S12       29.92F
CLINTON        CLOUDY    46  41  82 S25G33    29.84F
HOBART         CLOUDY    44  39  82 S28G33    29.89F
ALTUS AFB      PTCLDY    44  39  84 S13       29.92S
$$

OKZ018>020-024>031-110600-
CENTRAL OKLAHOMA

CITY           SKY/WX    TMP DP  RH WIND       PRES   REMARKS
OKLAHOMA CITY  CLOUDY    47  40  76 S24G33    29.92F
OKC/WILEY POST CLOUDY    47  39  74 S30G37    29.91S
OKC/TINKER AFB CLOUDY    46  39  76 S23G31    29.92F
STILLWATER     CLOUDY    43  35  73 S15       29.92F
GUTHRIE        CLOUDY    46  38  73 S18G26    29.90F
$$

OKZ008-013-054>072-110600-
NORTHEAST OKLAHOMA

CITY           SKY/WX    TMP DP  RH WIND       PRES   REMARKS
TULSA          CLOUDY    46  34  62 S21G29    29.99F
TULSA/JONES    CLOUDY    47  33  58 S16G25    30.01F
PONCA CITY     CLOUDY    41  33  73 S18G24    29.90F
BARTLESVILLE   CLOUDY    44  30  57 S12G20    29.99F
MUSKOGEE       CLOUDY    46  26  45 S15G24    30.08F
$$

OKZ032-040>043-046>053-073>077-110600-
SOUTH CENTRAL/SOUTHEAST OKLAHOMA

CITY           SKY/WX    TMP DP  RH WIND       PRES   REMARKS
ARDMORE/DWNTWN CLOUDY    46  32  57 S14G20    30.06F
MCALESTER      CLOUDY    47  25  42 S17G32    30.07F
$$





USA.gov is the U.S. government's official web portal to all federal, state and local government web resources and services.